Location: Bayview
(38.0070°N, 122.3188°W)
Time: 13:32:55
(UTC+00:00)

ALOS - Pass Details

Date: 29 June 2022
Orbit: 681 x 684 km, 97.9° (Epoch: 14 August)

Event Time Altitude Azimuth Distance (km) Brightness Sun altitude
Rises 12:04:42 0° 5° (N) 3,055 6.3 -8.1°
Reaches altitude 10° 12:07:01 10° 359° (N) 2,134 5.4 -7.8°
Maximum altitude 12:11:27 45° 288° (WNW) 932 2.7 -7.1°
Drops below altitude 10° 12:15:52 10° 216° (SW) 2,119 4.2 -6.4°
Enters shadow 12:16:50 - 213° (SSW) 2,497 4.6 -6.2°
